DMSP 5D-3 F15 (USA 147)

Last updated on Sat Dec 30 2023 00:02:17 GMT+0000 (Coordinated Universal Time)

1 25991U 99067A 23363.62201372 .00000249 00000+0 14728-3 0 9996 2 25991 99.0712 10.7266 0010689 44.2292 65.5308 14.16876361243082

Satellite not in orbit

DMSP 5D-3 F15 (USA 147)